Theta_e
326 325 325 325 325 324 324 325 325 324 323 323 322 321 321 320 320 320 321 321 322 322 322 322 322 323 322 322 321 320 319 319 319 320 320 320 320 320 320 319 318 317 317 317 317 317 316 315 314 313 313 312 312 312 314 314 315 316 316 316 315 314 314 314 314 314 314 313 313 312 311 311 310 310 309 309 308 308 307 307 307 308 308 308 307 306
326 325 325 324 324 324 323 324 324 324 324 324 323 323 322 321 320 320 320 321 322 323 322 322 322 322 321 321 321 320 319 319 319 320 319 319 320 320 319 318 317 317 317 317 317 316 315 315 314 313 313 312 311 311 313 313 313 314 315 315 315 314 314 313 313 313 313 312 311 311 310 309 309 309 309 309 308 308 308 308 308 308 308 307 305 303
325 325 324 323 323 323 323 323 323 323 324 324 324 323 322 321 320 320 320 320 321 322 322 321 321 321 320 320 320 319 318 318 319 319 319 319 319 319 319 318 317 316 317 317 317 316 315 314 314 313 313 312 311 310 311 312 312 313 313 313 313 313 313 313 313 312 312 311 310 310 309 309 309 309 309 309 309 309 309 308 308 307 307 305 303 301
324 324 323 323 322 322 322 322 322 322 322 322 322 322 321 320 319 319 320 320 320 320 320 320 320 320 319 319 319 318 318 318 318 318 318 318 318 318 318 317 317 316 317 317 316 316 315 314 314 313 313 312 311 310 310 311 312 312 312 312 312 312 312 312 312 312 311 311 310 310 310 310 309 309 309 309 309 308 308 308 307 306 305 303 301 299
323 323 323 322 321 320 321 321 321 320 320 320 319 319 318 318 318 318 318 318 318 318 318 318 318 319 318 318 318 317 317 318 318 318 318 318 318 317 317 317 317 317 317 316 316 315 314 314 313 313 312 311 310 310 309 310 311 312 312 312 311 311 311 312 312 311 311 311 310 310 310 310 309 309 309 308 308 307 307 307 306 304 302 300 299 298
322 323 322 321 320 319 319 319 319 319 318 318 317 317 316 316 316 316 316 316 316 316 316 317 317 317 317 317 317 317 317 318 318 318 318 318 317 317 316 316 316 316 316 316 316 315 314 313 313 312 311 311 310 309 309 309 310 311 311 312 311 311 311 311 311 311 310 310 310 310 309 309 308 308 307 307 306 306 306 305 304 302 300 299 297 297
322 321 321 320 319 319 319 318 318 318 317 316 316 315 315 315 315 314 314 314 314 315 315 315 316 316 317 316 316 317 317 318 318 318 317 317 317 316 316 316 316 316 316 316 315 314 313 313 312 311 311 310 309 309 308 308 309 309 310 310 311 311 311 311 311 311 310 310 309 309 309 308 307 307 306 306 306 305 305 304 302 301 299 297 296 296
321 319 318 318 318 317 317 317 316 316 316 315 314 314 313 313 313 313 313 313 313 314 314 314 315 315 316 316 316 316 317 317 317 317 317 316 316 316 316 316 316 316 316 315 314 313 313 312 311 310 310 309 308 308 307 308 308 308 308 309 309 310 311 311 311 310 310 309 309 308 307 307 306 306 305 305 305 304 304 303 301 299 297 296 296 295
319 317 316 316 315 315 315 315 314 314 314 314 313 313 312 312 312 312 312 312 313 313 314 314 314 315 315 315 316 316 316 316 316 316 315 315 315 315 315 315 315 315 315 314 314 313 312 311 310 310 309 308 307 307 307 307 307 307 307 307 308 309 310 311 311 310 310 309 308 307 307 306 305 305 304 304 304 303 303 301 300 298 297 295 295 294
318 316 315 314 314 313 313 313 312 312 313 313 313 312 312 311 311 311 311 312 312 313 313 313 314 314 314 315 315 315 315 315 315 315 314 314 314 314 314 314 314 314 314 314 313 312 311 310 310 309 308 307 307 306 306 306 306 306 307 307 307 308 309 310 310 310 309 308 307 307 306 305 305 304 303 303 303 302 302 301 299 298 297 295 294 294
316 315 314 312 311 311 312 311 311 311 311 311 311 311 311 311 311 310 310 311 311 312 312 312 313 313 313 313 314 314 314 313 313 313 313 313 313 313 313 313 313 313 313 313 312 311 310 310 309 308 307 307 306 305 305 305 305 305 306 306 306 307 309 309 309 309 308 308 307 306 306 305 304 303 303 302 302 301 301 300 299 298 297 295 294 294
315 314 313 312 310 309 309 309 309 309 309 310 310 310 310 310 310 310 310 310 310 311 311 311 311 312 312 312 312 312 312 311 311 311 311 311 311 311 311 311 311 311 311 311 310 310 309 308 308 308 307 306 305 305 304 304 304 304 305 305 306 307 308 308 308 308 308 307 306 306 305 304 303 303 302 302 301 301 300 299 299 298 298 295 294 295
315 313 312 310 309 308 308 307 307 307 308 308 309 309 308 309 309 310 310 310 310 310 310 310 310 310 311 311 311 311 310 310 309 309 309 309 309 309 309 308 308 308 308 308 308 307 307 307 307 307 306 306 305 304 303 303 303 303 304 304 305 306 307 307 307 307 306 306 305 305 304 303 303 302 302 301 301 300 300 299 299 298 298 295 294 294
313 311 310 308 307 307 306 306 306 306 307 308 309 309 309 309 309 309 309 309 309 309 309 309 309 309 309 310 309 309 309 308 308 308 307 307 307 307 307 307 307 307 307 306 306 305 305 305 306 306 306 305 305 304 303 302 302 302 302 303 303 304 305 305 305 305 305 305 304 303 303 302 302 301 301 301 300 300 299 299 299 298 297 295 293 293
310 309 307 306 306 305 305 305 306 307 307 308 309 309 309 308 308 308 308 308 308 307 307 307 307 307 307 308 308 308 308 307 307 306 306 306 306 307 307 307 306 306 306 306 305 304 304 305 306 306 305 305 305 304 302 301 301 301 301 301 302 302 303 304 304 304 304 304 303 302 302 301 301 300 300 300 300 300 299 299 298 298 297 294 293 292
309 308 307 306 306 306 306 306 306 307 308 308 308 308 308 307 307 308 308 307 306 306 305 305 305 305 305 306 307 307 307 307 306 305 304 304 304 305 306 306 305 304 305 305 304 304 304 305 306 306 306 305 305 304 302 301 300 299 300 300 301 301 302 302 302 302 303 303 302 301 301 300 300 299 299 299 299 299 299 298 298 297 296 294 292 292
308 307 307 307 307 307 307 306 306 307 308 307 308 308 307 307 307 308 307 306 305 305 305 305 305 305 304 304 305 306 307 306 305 304 303 302 302 303 304 305 304 303 303 303 304 304 304 305 306 305 305 305 304 304 302 300 299 298 298 299 299 300 301 301 301 301 301 302 302 301 300 300 299 299 299 298 298 298 298 298 297 296 295 293 292 291
309 308 308 308 308 308 307 306 306 307 307 307 307 307 307 307 307 307 306 305 304 304 305 306 307 306 305 303 303 305 306 306 304 303 301 301 301 301 303 304 304 303 302 302 303 303 304 305 305 305 304 304 303 303 302 300 298 297 296 297 297 298 299 300 301 301 301 301 301 300 300 299 299 298 298 298 298 298 297 297 296 295 294 292 291 291
309 308 308 308 309 308 307 306 306 306 307 306 306 306 306 307 307 306 305 305 305 305 306 306 307 307 306 305 303 303 305 305 304 302 300 299 299 300 301 302 302 302 301 301 302 302 303 304 304 303 303 302 302 302 301 299 297 296 295 294 295 296 297 298 299 300 300 300 300 300 299 299 298 298 297 297 297 296 296 296 295 294 292 291 290 291
310 309 309 309 309 309 307 306 306 306 306 306 306 306 306 306 306 306 305 304 305 306 306 307 307 306 306 304 303 303 304 304 303 302 300 298 297 298 300 301 301 301 300 300 301 301 302 302 302 301 300 300 301 300 300 298 297 295 294 293 292 292 293 295 296 297 298 298 298 298 298 298 297 297 296 296 296 295 295 294 293 292 291 290 290 291
311 310 310 310 310 309 308 307 307 307 306 306 306 305 306 306 306 305 305 304 305 306 306 306 306 306 305 303 302 302 303 304 303 301 299 297 296 297 299 300 300 300 299 299 300 300 300 300 300 299 299 298 299 299 298 297 296 295 294 293 291 291 290 291 292 293 295 295 296 296 296 296 296 296 295 295 294 294 293 292 291 291 290 290 291 292
313 312 311 311 311 310 310 308 308 307 307 306 306 305 306 306 305 305 304 304 305 305 306 307 307 306 305 303 303 303 303 304 304 302 299 296 295 295 297 298 299 298 298 298 298 299 299 299 298 297 297 297 297 297 297 296 295 295 294 293 292 290 289 289 289 290 291 292 294 294 295 295 294 294 294 293 293 292 291 291 291 291 291 291 293 294
314 313 312 311 311 311 310 310 308 307 307 306 306 306 306 306 305 305 304 305 305 306 306 305 305 305 304 303 302 302 303 304 304 302 300 297 295 294 296 297 298 297 297 297 297 298 298 297 296 296 295 295 295 295 295 295 295 295 294 293 292 290 289 288 288 288 289 290 291 292 293 293 293 293 292 292 292 291 290 291 292 292 293 294 295 297
314 314 313 312 311 311 310 310 309 307 307 306 306 306 306 306 305 305 305 305 305 305 304 303 303 303 302 302 301 301 301 302 303 303 301 299 296 295 295 296 297 296 295 296 297 297 296 296 295 294 293 293 293 294 294 294 294 294 294 293 292 290 289 288 287 287 288 289 290 291 292 292 291 291 291 291 291 290 290 291 292 293 294 296 298 299
314 314 314 313 312 311 310 310 309 308 307 306 305 305 305 305 305 305 304 304 304 303 302 302 301 299 299 299 299 300 300 301 302 303 302 299 296 294 294 295 296 295 295 295 296 296 296 295 294 293 293 292 292 292 293 294 294 294 294 293 291 290 289 288 287 287 288 288 289 290 291 291 291 291 291 291 290 290 291 292 293 294 296 298 299 300
314 314 314 313 313 312 311 310 309 308 307 306 305 305 305 305 305 304 304 303 303 302 301 301 299 297 297 297 298 299 300 300 302 302 302 299 295 293 293 295 295 295 293 294 295 295 295 294 293 292 292 292 292 292 293 294 294 294 293 292 291 290 289 288 287 287 288 289 290 290 291 291 291 291 291 291 291 291 292 293 294 295 297 299 300 300
314 314 314 313 313 312 311 310 309 308 307 306 306 305 305 305 305 303 303 302 302 301 301 301 299 296 296 296 297 298 299 300 301 302 302 299 295 292 292 294 294 294 293 293 294 294 294 293 292 292 291 292 292 292 293 293 293 293 293 292 291 290 289 287 287 288 289 290 290 291 291 291 291 291 291 291 291 292 292 293 294 295 297 299 300 300
313 313 313 313 313 312 311 310 309 308 307 306 306 305 305 305 304 302 301 301 301 302 302 301 299 297 296 297 297 297 298 299 300 301 301 300 297 293 292 293 294 293 292 291 292 293 293 292 292 292 291 292 292 292 293 292 292 292 292 292 291 290 289 288 287 288 290 290 291 291 291 292 291 291 291 291 291 292 293 294 294 295 297 298 299 299
312 313 313 313 312 312 311 309 308 307 306 306 306 305 305 305 304 303 302 302 302 302 302 301 300 298 297 296 296 296 297 298 299 300 301 300 297 293 292 292 293 293 292 290 290 290 291 291 291 292 291 292 292 293 293 292 292 292 292 292 291 291 290 288 288 289 290 291 291 292 292 292 292 291 291 291 292 292 293 294 294 295 296 297 298 298
311 311 311 311 311 311 310 309 308 307 306 306 306 305 306 305 305 305 304 303 302 302 302 302 300 298 296 295 294 294 295 297 298 299 300 299 296 293 292 292 292 292 292 291 289 289 289 290 291 291 291 291 292 292 293 293 292 292 292 292 292 291 290 289 288 289 290 291 292 292 292 292 292 291 291 291 292 292 293 293 294 295 295 296 297 297
311 311 310 310 310 310 309 308 307 306 306 306 305 306 305 306 306 305 305 304 303 303 303 302 300 298 296 296 296 296 296 296 297 298 300 300 297 293 292 292 292 292 293 293 292 291 289 289 290 290 291 291 292 292 292 293 293 293 292 292 292 292 291 289 288 289 290 291 292 292 292 292 292 291 291 291 291 292 292 293 294 294 294 295 296 296
310 310 310 309 309 308 308 307 306 306 305 305 305 305 305 306 306 306 306 306 305 305 304 303 301 299 298 299 300 299 298 297 297 298 299 299 296 293 293 292 292 292 293 295 296 295 293 290 289 289 290 291 291 292 292 292 293 293 292 292 292 292 291 290 289 289 290 291 292 292 292 292 291 291 291 291 291 292 292 292 293 293 293 294 295 296
309 309 309 308 308 307 307 306 306 305 304 304 304 305 305 306 306 306 306 307 307 306 305 304 302 300 300 301 301 301 300 299 298 298 299 298 296 294 293 293 292 292 292 294 295 296 294 292 290 289 289 290 291 291 292 292 292 292 292 292 292 291 291 290 289 289 290 291 291 292 292 291 291 291 291 291 291 291 292 292 292 293 293 293 294 295
308 308 307 307 306 306 306 306 305 305 304 304 304 304 305 305 306 306 307 307 308 307 307 306 304 302 300 301 301 300 299 299 299 299 298 298 297 294 293 292 292 291 291 292 293 294 294 292 290 289 289 288 289 291 291 292 292 292 292 291 291 291 291 290 289 289 290 290 291 291 292 291 291 291 291 291 291 291 291 291 292 292 292 293 293 294
306 306 306 305 305 305 305 305 305 304 304 304 304 304 304 305 306 306 307 307 308 307 307 307 307 305 303 302 301 299 298 299 299 299 298 298 298 296 294 293 292 292 291 291 292 292 291 290 290 290 289 288 288 289 291 291 291 291 291 291 291 291 291 290 290 289 289 290 291 291 291 291 291 291 291 291 291 291 291 291 291 291 292 292 292 293
305 304 304 304 304 304 304 304 304 304 304 303 303 303 304 304 305 306 307 307 308 307 307 308 308 308 307 306 303 302 301 301 300 299 298 299 299 297 295 293 293 292 292 291 291 291 290 289 289 290 290 288 288 288 289 290 290 291 291 291 291 291 290 290 290 289 289 290 290 290 291 291 291 291 291 291 291 291 291 291 290 290 291 291 292 292
304 304 303 304 304 304 304 304 303 303 303 303 303 303 303 304 305 305 306 307 307 307 307 307 307 307 307 307 306 306 305 304 301 299 298 299 299 298 296 294 293 293 293 292 292 291 291 289 289 290 290 290 289 288 288 289 289 290 290 290 290 291 290 290 290 289 289 289 290 290 290 291 291 291 291 290 290 291 291 291 290 290 290 290 291 291
303 303 303 303 303 303 303 303 303 303 303 303 303 302 303 303 304 305 305 306 306 306 305 305 305 305 305 305 305 306 306 304 302 300 299 299 299 299 297 295 294 293 294 294 293 292 291 290 290 290 290 291 290 289 288 288 288 289 289 290 290 290 290 290 289 289 289 289 289 290 290 290 290 290 290 290 290 291 291 291 290 290 289 290 290 290
302 303 303 303 303 303 303 303 303 303 303 303 302 302 302 303 303 303 304 304 304 304 304 304 304 303 303 303 303 303 304 303 303 301 300 299 299 298 297 296 294 293 294 294 293 293 292 292 291 291 291 291 290 289 288 288 288 288 289 289 289 290 290 290 289 289 289 289 289 289 290 290 290 290 290 290 290 291 291 291 290 290 289 289 289 290
303 303 303 303 303 303 303 303 303 303 303 302 302 302 302 302 301 301 301 302 302 302 302 302 302 302 302 301 301 302 302 302 302 301 300 300 299 298 297 296 295 293 293 293 293 293 293 293 293 292 292 291 290 288 288 288 288 288 288 288 288 289 289 290 289 289 289 289 289 289 289 290 290 290 290 290 290 290 291 291 290 290 289 289 289 289
303 303 303 303 303 303 303 303 303 302 302 302 301 301 301 300 300 299 299 300 300 300 300 301 301 300 300 300 300 300 300 300 300 300 300 299 298 297 297 296 295 294 293 293 293 293 293 293 293 293 292 291 290 289 288 288 288 288 288 287 288 288 289 289 289 289 289 289 289 289 289 289 290 290 290 290 290 290 290 290 290 290 289 288 288 288
303 303 303 303 303 303 303 302 302 302 302 301 300 300 300 299 299 298 298 298 298 298 299 299 299 299 299 299 299 299 298 298 298 298 298 298 298 297 296 296 295 295 294 293 292 292 292 293 293 292 292 291 290 289 288 287 287 288 288 288 288 288 288 289 289 288 288 289 288 289 289 289 289 290 289 289 289 289 290 290 290 290 289 288 288 288
302 303 303 303 302 302 302 302 301 301 300 300 300 299 299 299 298 298 297 297 296 297 297 298 298 298 297 296 296 297 297 297 297 297 297 297 297 297 296 296 296 295 294 293 292 292 292 292 292 292 292 291 290 289 288 287 287 287 288 288 288 287 287 288 288 288 288 288 288 288 289 289 289 289 289 289 289 289 289 290 290 290 289 288 287 287
302 302 302 302 301 301 301 301 300 300 299 299 298 298 298 298 298 297 296 296 295 296 296 296 297 296 295 294 294 294 295 295 296 295 295 296 296 296 296 296 295 295 295 293 292 291 291 292 292 292 291 291 290 289 288 287 287 287 287 287 288 288 288 288 288 288 288 288 288 288 288 289 289 289 289 289 288 288 289 289 289 289 289 288 287 287
301 301 301 300 300 300 299 299 299 298 298 298 297 297 296 297 297 297 296 295 294 294 295 295 295 294 292 291 291 292 293 293 294 294 294 294 294 295 295 295 295 295 294 294 293 292 291 291 291 291 291 291 290 289 288 287 287 287 287 287 287 288 288 288 288 287 287 287 288 288 288 288 289 289 289 289 288 288 288 288 289 289 289 288 287 287
300 299 299 298 298 298 297 297 297 297 297 296 296 296 295 296 296 296 296 295 294 294 294 294 294 293 291 290 289 289 290 291 292 292 293 293 293 293 294 294 294 294 294 293 293 292 292 291 291 290 290 290 289 289 289 288 287 287 287 287 287 287 287 288 287 287 287 287 287 288 288 288 288 289 289 289 288 288 288 288 288 288 288 288 287 287
298 297 297 296 296 296 296 296 296 296 295 295 294 294 294 294 295 295 295 294 294 293 293 294 294 294 292 290 289 288 288 289 289 290 291 291 292 292 292 292 293 293 292 292 292 292 292 292 291 290 290 289 288 288 288 288 288 288 287 287 287 287 287 287 287 287 287 287 287 287 287 287 287 288 288 288 288 287 287 287 287 287 287 287 287 287
297 296 295 295 295 295 295 294 294 294 294 294 293 293 293 293 294 294 294 294 293 293 293 293 294 293 291 290 289 289 289 288 288 288 289 290 290 291 291 291 291 291 291 291 291 291 291 291 291 291 290 289 288 287 287 287 288 288 287 287 287 286 286 286 286 287 287 286 286 287 287 287 287 287 288 288 288 287 287 287 287 287 287 287 287 287
296 295 295 294 294 294 294 293 293 294 294 293 292 292 292 293 293 293 293 293 293 293 293 294 294 293 291 290 289 289 289 289 288 288 288 288 289 289 289 290 290 290 290 290 290 290 290 290 290 290 290 290 289 288 287 287 287 288 288 287 287 286 286 286 286 286 286 286 286 286 286 286 286 286 287 287 287 287 287 287 287 287 287 287 287 287
296 295 294 294 294 294 293 293 293 293 293 293 291 291 291 291 292 293 293 293 293 293 294 294 294 293 291 290 289 289 289 288 288 287 287 287 288 288 288 289 289 289 288 288 288 288 288 288 288 289 289 289 289 289 288 287 287 287 287 287 287 286 286 285 285 285 286 286 286 286 286 286 286 286 286 286 286 286 286 286 286 287 287 287 287 287
295 294 294 294 294 294 293 293 293 293 293 292 291 290 290 291 291 292 292 292 293 293 294 294 294 293 291 290 289 289 289 288 288 287 286 286 287 287 287 288 288 288 287 286 286 286 286 286 286 287 287 288 288 289 289 288 287 286 286 286 286 286 285 285 285 285 285 285 285 286 286 286 286 285 286 286 286 285 285 286 286 287 287 287 287 287
Wind_Speed
26 27 26 26 27 29 32 33 34 35 36 37 38 39 40 42 42 43 42 42 41 40 41 42 44 45 47 47 46 45 43 42 41 41 40 38 36 34 31 28 25 23 23 23 22 22 20 18 17 15 15 15 15 16 16 16 17 17 17 17 18 19 19 19 19 18 17 17 17 17 18 19 19 19 19 18 16 14 12 10 8 7 7 7 7 7
24 25 26 27 28 29 31 33 34 35 36 37 39 40 41 41 42 42 42 42 42 43 43 44 45 46 47 47 46 45 43 42 41 40 39 38 36 33 31 28 25 24 23 23 23 22 21 19 18 17 16 16 17 17 18 17 17 18 18 18 18 18 19 20 20 21 20 20 19 20 20 20 20 20 19 17 16 14 12 10 9 9 8 7 7 6
22 23 25 27 28 29 31 33 35 36 37 38 40 42 42 42 42 42 42 42 42 43 45 46 47 47 46 46 45 44 42 41 41 40 38 36 34 32 30 28 26 25 24 24 24 23 21 20 19 18 17 17 18 19 19 19 19 18 19 19 18 18 18 19 20 21 22 22 22 22 21 20 20 18 17 16 14 13 12 11 10 9 8 7 6 6
19 22 25 26 28 30 32 33 34 35 37 38 39 40 41 41 41 42 42 43 43 44 45 47 47 46 44 44 43 43 42 41 40 39 37 35 33 32 30 28 26 26 25 25 24 23 22 21 19 18 18 18 18 19 20 21 21 20 20 19 18 18 17 18 19 20 21 21 21 20 19 18 17 16 15 14 13 12 11 10 9 8 7 6 6 6
17 19 22 24 25 27 30 31 32 33 34 35 36 36 37 37 38 39 40 41 41 42 43 45 45 44 43 42 42 43 43 42 41 39 37 35 33 31 30 28 27 27 26 25 24 24 22 21 20 19 18 18 19 19 21 22 23 23 22 20 19 18 17 17 19 20 21 21 20 19 17 16 15 14 14 13 12 11 10 9 8 7 7 7 6 6
14 17 19 20 22 23 26 28 30 31 31 31 32 32 32 33 34 35 35 36 37 38 40 41 41 42 42 43 43 44 44 43 41 39 37 35 34 32 30 29 29 28 27 25 25 24 22 21 20 19 18 18 18 19 20 22 23 24 24 23 20 18 17 18 19 21 21 20 19 18 17 16 15 14 13 12 11 10 10 9 8 7 7 7 7 7
14 15 17 18 20 22 24 26 28 29 28 27 27 28 28 29 30 30 31 31 32 34 35 36 37 39 41 43 44 44 44 43 41 39 38 36 34 32 30 30 30 29 27 26 24 23 22 20 19 19 18 18 18 19 20 21 22 23 23 23 22 20 19 19 20 21 21 20 19 17 16 15 14 14 13 12 11 10 10 9 7 7 6 7 7 7
14 15 16 18 20 22 24 25 26 27 26 25 23 23 24 25 26 26 27 27 28 29 30 31 33 36 39 42 44 44 43 42 40 39 38 37 35 33 31 31 30 29 27 26 24 23 22 20 19 18 18 18 18 18 19 20 21 21 21 21 21 21 21 21 21 22 21 20 18 17 16 15 14 14 13 12 12 11 10 9 7 6 6 7 7 7
16 15 17 18 20 21 21 22 23 25 25 24 22 21 20 21 21 22 22 22 24 25 27 29 31 33 37 40 42 43 42 41 41 40 39 38 36 34 33 32 31 29 27 26 25 23 21 20 19 18 18 17 17 18 18 19 19 19 19 19 19 21 22 22 22 22 21 20 18 17 16 16 15 14 13 13 12 11 10 8 7 6 6 6 7 8
19 17 16 18 19 19 19 18 19 21 23 23 22 22 21 19 18 17 18 19 22 24 26 28 30 32 35 38 40 40 40 40 40 40 40 39 37 36 35 34 32 30 28 26 25 23 21 20 19 18 17 17 17 18 18 19 19 19 18 18 19 20 22 22 22 21 21 20 19 18 17 17 16 15 14 13 12 11 10 9 7 6 6 6 7 8
18 18 16 16 17 18 18 17 17 18 21 21 21 21 20 20 19 18 17 18 21 23 24 26 28 30 32 34 36 36 36 37 37 38 38 38 37 36 35 34 32 30 29 27 25 23 22 20 19 18 18 17 17 18 18 19 19 19 19 18 19 20 21 21 21 21 21 21 20 19 18 17 16 15 14 13 13 12 10 9 8 6 6 6 7 8
16 15 15 15 15 16 18 18 17 18 19 19 17 16 17 20 22 21 19 19 20 21 22 23 25 28 30 32 32 33 33 34 34 35 35 36 36 36 35 33 32 30 28 27 25 23 22 21 20 19 18 18 18 18 19 19 20 20 19 19 20 20 21 20 20 20 20 20 20 19 18 17 17 16 15 14 13 12 11 10 8 7 6 6 8 9
16 15 14 14 14 15 16 16 15 16 17 17 17 16 16 20 22 22 22 21 22 23 23 23 24 25 28 30 30 31 31 32 33 33 33 34 35 35 34 33 31 30 29 27 26 24 23 22 20 19 18 18 18 18 19 20 20 20 20 20 20 21 21 20 19 19 19 19 18 18 17 17 16 16 15 15 14 13 12 11 9 8 6 7 9 11
14 13 13 13 13 14 16 16 15 15 17 19 20 20 20 21 22 23 21 21 21 23 24 23 22 23 24 26 28 30 31 31 32 32 32 33 34 34 34 33 32 31 30 28 27 26 25 23 22 20 19 18 18 18 19 20 21 21 20 20 20 21 21 20 19 19 18 18 18 17 17 16 16 16 15 15 15 14 13 12 10 9 8 8 10 12
12 12 11 10 11 13 15 17 17 18 19 20 21 20 20 21 22 23 21 20 20 22 22 22 22 21 21 24 27 30 32 32 32 31 30 31 32 34 34 33 32 31 30 29 28 27 26 24 23 21 20 19 18 18 19 20 21 21 21 21 21 21 21 21 20 19 19 18 18 18 17 17 16 16 16 16 15 15 14 13 11 10 9 9 11 14
13 12 11 11 12 14 17 18 19 19 20 20 19 19 19 20 22 23 22 21 21 22 20 19 17 15 16 22 27 31 33 33 32 30 29 30 31 32 33 34 33 32 30 30 29 28 27 25 23 22 20 19 18 18 19 20 21 21 21 21 21 21 21 21 21 20 20 19 19 19 18 18 17 17 16 16 16 15 15 13 12 11 10 10 12 15
15 14 14 13 14 16 18 19 20 20 19 19 19 21 21 22 23 23 23 23 22 21 20 19 13 8 9 16 25 31 34 34 32 30 30 29 30 31 32 33 33 32 31 30 30 29 27 25 23 22 20 19 18 18 18 19 20 21 21 21 21 21 21 21 21 20 20 20 20 20 19 18 18 17 17 17 17 16 15 14 13 12 11 12 13 15
16 16 16 15 15 16 18 19 20 20 19 19 20 21 23 23 24 23 23 23 22 21 20 21 17 12 10 12 21 30 35 34 32 29 28 28 29 30 31 32 33 32 31 30 30 29 27 25 24 22 20 19 18 18 18 19 20 20 21 21 21 21 21 21 21 20 20 20 20 20 19 19 18 17 17 17 17 16 15 14 13 12 12 12 14 16
17 18 18 17 17 18 18 19 20 20 20 20 21 21 21 21 22 22 22 23 24 24 24 21 20 19 18 18 24 31 35 35 32 29 26 25 27 30 31 31 31 31 31 30 29 28 27 25 23 21 20 19 18 18 18 19 19 20 20 20 21 21 21 21 21 21 20 20 20 20 19 19 18 18 17 17 17 16 15 14 13 13 13 13 14 17
18 20 21 21 20 18 18 20 22 23 22 23 23 22 21 21 21 21 22 23 25 26 26 23 21 20 20 21 26 33 36 35 31 27 24 24 26 29 30 30 30 30 30 30 29 28 26 24 22 21 20 19 19 18 19 19 19 19 19 20 20 20 21 21 21 21 21 21 21 20 20 19 18 18 17 17 17 16 15 14 13 13 13 13 14 17
20 21 24 24 22 19 19 22 25 26 25 25 24 23 22 22 21 21 22 23 24 24 23 21 20 21 22 24 29 34 37 36 31 25 22 21 24 28 30 30 30 30 30 30 29 27 25 23 22 21 20 20 19 19 19 19 19 19 19 19 19 19 20 20 20 20 21 21 21 20 20 19 19 18 18 17 16 15 14 13 13 13 13 13 15 17
22 23 26 26 25 23 23 24 25 27 27 27 26 25 23 22 22 22 23 23 23 22 21 21 21 21 24 28 34 37 38 37 32 27 22 18 20 25 30 30 29 29 29 29 29 27 25 23 22 21 20 20 20 19 19 19 19 19 18 18 18 18 19 19 20 20 20 20 21 21 20 19 19 18 18 17 16 15 13 12 12 12 12 13 15 17
26 26 26 27 27 27 26 24 25 26 28 29 29 28 25 24 23 23 24 23 23 22 21 20 20 21 24 30 35 37 37 36 34 30 23 16 17 23 29 29 28 27 27 29 29 27 25 23 22 21 20 20 20 20 20 19 19 19 18 18 18 18 18 18 19 19 20 20 20 20 20 20 19 18 17 17 16 14 13 13 12 12 12 12 14 16
30 28 27 27 27 28 27 25 25 26 28 29 29 27 24 24 23 23 23 23 22 22 22 21 20 20 22 28 32 34 34 33 33 30 24 17 18 25 29 30 27 24 24 27 29 28 26 24 22 22 21 20 20 20 20 20 19 19 18 18 17 17 17 18 18 19 19 19 19 19 19 19 18 18 17 16 15 14 14 14 13 13 12 13 14 16
31 31 29 28 28 28 28 27 27 27 28 29 29 27 23 21 20 20 21 21 21 21 21 20 18 17 20 25 28 30 31 31 30 28 23 16 17 24 30 30 26 22 22 26 28 28 26 24 23 22 22 20 20 20 20 20 19 18 18 17 17 17 17 17 17 18 18 18 18 18 18 18 18 17 16 16 15 15 15 15 15 14 14 15 16 17
31 32 32 31 30 29 29 29 29 28 29 31 31 29 26 22 20 19 19 19 20 21 21 18 14 13 17 20 23 26 29 29 29 27 23 18 18 22 28 30 26 22 21 25 28 28 27 25 24 23 22 21 20 19 20 20 19 18 17 17 17 16 16 17 17 17 17 17 17 18 17 17 17 17 16 16 16 16 17 16 16 16 16 18 19 20
31 31 31 31 31 30 29 29 29 29 30 32 33 33 30 27 23 21 19 20 22 22 19 13 9 8 12 15 18 23 29 29 27 26 25 22 20 21 26 28 26 22 21 24 26 28 27 25 24 23 23 22 21 20 19 19 18 18 17 17 16 16 16 16 17 17 17 18 18 17 17 17 17 17 17 17 17 18 18 17 17 17 18 20 21 22
30 30 31 31 31 30 29 29 29 30 30 32 34 34 33 31 27 23 20 22 23 22 18 13 9 7 8 11 16 22 28 29 27 26 25 24 20 19 26 29 27 22 21 22 24 26 26 25 24 24 23 23 22 21 19 18 17 17 16 16 16 15 15 16 17 18 18 18 18 18 17 17 17 17 17 17 18 18 18 18 18 18 19 20 22 23
28 29 30 31 31 30 29 29 29 30 31 33 34 35 35 33 30 28 27 28 26 21 17 15 13 11 10 12 15 20 24 27 28 28 26 23 19 19 27 29 27 24 22 20 20 20 21 22 23 24 24 23 23 22 21 20 18 16 16 15 15 15 15 16 17 18 19 18 18 18 17 17 17 17 17 18 18 19 18 18 19 19 20 21 22 23
27 27 28 29 30 29 29 29 29 30 31 33 34 35 35 34 33 33 34 33 29 24 18 15 14 13 12 12 11 11 15 23 29 31 29 22 18 20 27 28 28 26 25 20 13 9 12 18 22 24 25 24 23 23 23 22 20 18 17 16 15 15 15 16 17 19 19 18 18 18 18 18 17 17 17 17 18 18 19 19 20 20 20 21 22 23
27 27 27 28 29 29 29 29 30 30 31 33 34 35 35 35 33 33 35 35 33 29 23 18 16 16 16 11 7 4 7 22 31 33 31 24 20 22 28 28 28 29 29 23 12 4 5 12 20 25 25 25 25 24 23 23 22 21 20 18 17 16 15 16 18 19 19 18 18 18 18 18 18 17 17 18 18 19 19 20 21 21 21 21 22 22
27 27 28 28 29 29 30 30 30 31 32 33 35 36 36 35 34 34 35 36 35 33 29 25 23 22 21 17 11 7 9 24 34 36 34 26 22 25 30 29 28 29 31 28 19 10 5 7 15 23 26 26 26 25 25 24 23 22 21 21 19 18 17 17 18 20 19 19 18 18 18 18 18 18 18 18 18 19 20 21 22 22 22 22 22 23
27 27 28 28 29 29 30 30 30 31 32 34 35 36 37 36 36 35 35 36 36 35 34 31 28 26 25 23 19 15 17 28 37 41 38 30 25 25 28 28 28 28 30 28 22 15 10 10 14 20 24 27 27 27 26 25 24 24 23 22 21 20 18 18 19 20 20 19 19 19 19 18 18 18 18 18 18 19 20 21 22 22 22 23 23 23
25 26 27 27 28 29 29 30 30 30 31 33 35 36 37 37 37 36 36 36 36 36 37 36 34 30 26 22 19 18 20 29 38 43 41 35 28 26 29 28 27 27 28 25 20 15 11 14 16 17 19 24 27 27 27 27 26 25 25 24 23 22 21 20 21 21 21 20 20 20 19 19 19 18 18 18 19 19 20 21 22 22 22 23 23 23
24 25 25 26 27 28 28 28 29 30 31 32 34 35 36 37 38 37 37 36 36 37 37 38 37 36 32 26 21 19 21 28 37 42 42 39 34 30 30 28 28 28 26 24 20 15 11 15 18 18 17 19 22 26 28 28 27 27 26 25 24 23 22 22 22 23 22 22 21 21 21 20 20 20 20 19 19 19 20 20 21 21 22 22 22 23
23 23 24 26 27 27 27 28 29 29 30 31 33 34 35 37 38 38 37 36 36 36 36 36 36 36 35 33 29 27 28 31 36 41 43 42 38 34 30 29 30 31 27 25 22 19 15 15 18 20 19 17 16 20 26 29 29 28 27 27 26 25 24 23 23 23 24 23 23 23 22 22 22 22 21 21 20 20 20 20 20 21 21 21 21 22
22 22 24 26 27 28 28 27 28 30 30 31 32 33 34 35 37 37 37 36 35 35 35 34 34 34 33 33 32 32 33 33 36 40 44 43 41 36 31 30 32 33 30 27 24 22 19 16 16 17 17 17 16 18 22 28 30 29 28 28 27 26 25 24 24 24 24 24 24 24 24 23 23 23 22 21 20 20 19 19 19 20 21 21 21 21
21 22 23 25 26 27 28 28 29 30 30 31 32 32 33 34 35 36 35 35 34 34 34 34 33 33 32 31 31 31 31 32 33 37 42 43 42 38 31 31 33 34 33 30 28 26 22 18 14 12 14 17 18 20 24 28 30 30 30 29 28 27 26 25 25 25 25 25 24 24 24 24 24 24 23 22 21 20 20 20 19 19 20 21 21 20
21 21 22 24 25 27 28 28 28 30 32 32 33 33 33 34 34 34 34 34 33 33 33 33 33 32 31 30 29 28 28 29 30 33 38 41 42 39 34 32 33 34 33 32 30 28 26 22 18 15 14 15 16 19 24 29 31 31 31 30 29 28 27 27 26 26 26 25 25 25 25 25 25 25 24 23 23 22 22 22 21 20 20 21 21 21
22 23 23 25 27 28 28 28 29 31 32 32 33 33 33 33 32 32 32 32 32 32 32 32 32 31 29 28 27 26 25 25 27 29 33 37 40 39 36 33 33 34 33 31 29 28 27 25 23 21 20 18 18 19 21 26 30 31 31 27 26 27 29 29 28 27 27 26 26 27 26 26 26 26 25 25 24 24 24 24 23 22 22 22 22 22
23 23 23 24 26 28 28 28 29 30 32 32 32 32 32 31 31 30 30 30 31 31 31 31 30 29 28 26 25 23 23 23 25 27 30 34 37 38 35 33 32 33 33 31 29 28 27 25 23 22 21 21 20 21 23 26 29 31 30 26 26 29 31 31 30 29 28 27 27 27 27 27 27 27 26 26 26 25 24 24 23 22 22 22 23 24
23 23 23 24 26 26 27 27 28 29 31 31 31 32 32 32 31 30 30 29 29 29 29 29 28 26 25 24 23 23 22 23 25 27 29 31 34 36 35 33 32 32 32 31 29 28 27 25 23 22 22 22 21 20 21 25 29 30 30 29 29 29 29 30 31 30 29 29 28 28 28 28 28 28 27 27 26 26 24 23 23 23 22 22 23 24
23 23 24 25 26 27 28 27 28 29 30 30 31 32 33 33 33 32 31 30 29 29 29 29 28 27 25 23 23 23 23 24 26 27 29 30 32 34 34 32 31 31 31 30 28 26 26 24 23 23 23 24 23 21 21 23 26 28 29 30 29 26 20 26 31 32 31 30 30 29 29 29 29 28 28 28 27 26 25 24 23 23 22 22 22 23
23 23 24 25 27 28 28 28 28 29 30 30 30 31 33 34 34 33 32 30 30 30 29 29 28 27 25 23 23 24 24 25 26 27 29 30 31 32 33 31 30 30 30 30 28 26 25 23 22 23 24 25 24 23 22 24 25 27 28 30 31 29 25 27 32 34 33 32 31 31 31 30 29 29 28 27 27 26 26 25 24 24 23 22 22 22
23 23 24 25 27 27 28 28 29 29 30 31 31 31 33 34 35 34 33 31 30 30 29 29 27 24 20 20 22 23 25 26 27 28 28 29 30 31 31 30 29 28 29 29 28 27 25 24 23 23 24 24 24 24 23 24 26 27 27 29 31 31 30 31 34 36 35 33 32 32 32 31 30 29 28 28 28 28 27 26 25 24 24 23 22 22
23 23 24 26 27 28 28 28 29 29 29 29 29 31 33 34 35 35 34 33 31 30 29 29 27 22 18 18 20 22 23 24 26 27 28 29 29 30 30 29 28 27 27 27 27 27 26 27 26 25 24 23 23 23 24 26 27 26 26 28 29 29 28 28 31 35 37 35 34 33 33 32 31 29 28 29 29 29 28 27 26 25 24 23 23 22
24 24 25 26 27 27 27 27 28 27 27 26 27 30 32 34 34 34 34 33 32 30 29 28 25 21 19 20 21 22 21 22 24 25 27 28 28 28 28 27 27 26 25 25 24 24 25 27 28 27 25 23 21 21 23 26 28 28 28 28 29 28 27 27 30 34 37 36 35 34 34 33 32 30 29 29 29 29 29 28 27 26 25 24 24 23
25 25 26 26 25 25 24 25 26 26 25 25 26 28 32 34 34 33 32 32 31 29 27 25 22 20 19 21 23 24 23 23 23 24 25 26 27 27 27 26 26 25 24 24 23 22 22 24 26 28 28 25 22 20 23 25 27 28 29 30 29 28 28 29 30 33 36 37 36 36 35 35 33 31 30 29 29 29 29 29 28 27 26 25 24 24
25 25 25 25 24 23 23 24 25 25 24 24 25 27 30 32 33 32 31 31 30 28 26 24 22 20 18 20 22 24 24 24 24 24 25 26 26 26 26 26 25 24 23 22 21 21 21 22 24 26 27 26 25 24 25 26 27 28 29 30 30 29 29 29 30 32 34 36 37 36 35 35 34 33 31 29 28 29 30 30 29 29 27 26 25 24
25 25 25 25 24 23 23 24 25 25 25 24 25 26 29 30 30 30 30 30 29 28 26 25 23 21 19 20 22 23 23 23 22 22 24 26 27 27 26 26 25 24 22 20 19 19 19 19 21 24 26 25 25 26 27 28 28 28 28 29 29 28 28 28 30 32 34 36 37 36 35 34 33 33 31 29 28 28 30 30 30 30 29 28 27 26
24 24 25 25 24 24 24 24 25 25 25 24 25 26 27 28 27 27 27 27 27 26 25 25 24 22 21 21 23 24 24 24 23 23 24 26 28 28 27 27 27 25 21 17 15 15 14 12 12 16 22 24 25 26 28 29 29 28 26 26 27 28 27 28 30 32 33 35 37 37 35 33 32 31 31 29 27 25 26 29 31 32 31 30 29 28
Wind_Direction
248 249 249 246 243 242 244 247 247 247 248 249 249 248 247 244 241 240 241 243 245 243 237 231 226 221 217 215 212 208 204 202 202 201 199 197 196 195 195 196 199 203 206 209 211 214 216 217 217 215 214 213 211 207 201 190 186 188 191 186 175 167 167 171 178 185 188 189 190 189 187 188 188 188 188 189 191 194 199 208 221 236 252 267 279 282
248 249 247 244 240 239 241 244 244 243 244 246 248 248 247 244 242 240 240 242 245 244 238 231 225 220 216 212 209 206 202 201 200 198 196 194 193 193 194 196 198 201 204 206 209 212 215 216 215 214 212 212 210 210 208 202 193 189 190 190 187 180 175 174 177 180 181 182 182 183 185 187 188 189 191 193 197 203 210 220 231 243 254 262 266 263
249 247 244 242 238 236 238 242 243 243 243 244 246 246 245 242 240 238 237 237 238 238 234 227 222 217 214 210 206 202 199 198 197 195 193 192 192 193 195 196 198 200 202 204 208 212 215 215 214 212 211 210 209 209 210 209 204 197 192 192 191 191 190 187 185 183 182 181 181 183 186 189 191 194 198 203 208 214 221 228 237 245 252 252 245 236
248 244 243 242 239 237 238 240 241 242 242 242 242 242 241 238 237 236 235 234 232 230 226 222 217 213 210 206 202 198 196 195 194 192 191 191 192 194 196 197 198 199 200 203 207 212 214 214 213 211 209 208 208 209 210 212 211 207 201 196 193 193 195 196 195 193 191 190 190 192 194 196 199 203 207 212 217 221 227 233 240 244 243 234 223 216
249 245 245 243 239 238 239 240 240 240 240 239 238 237 236 235 234 234 234 232 228 224 220 216 213 209 205 200 197 195 194 193 191 190 190 192 194 196 198 198 198 198 199 202 207 211 214 213 211 209 208 207 208 208 210 212 213 213 211 206 200 195 192 195 198 200 200 201 203 204 206 207 209 211 212 215 218 222 228 234 238 238 231 218 208 202
260 254 250 245 240 239 240 239 238 238 237 236 235 234 233 233 232 231 229 226 223 219 215 212 209 205 201 196 193 192 192 192 190 190 191 194 196 198 199 199 199 198 198 202 207 211 212 211 209 208 207 207 207 208 210 211 213 215 215 214 210 202 194 195 198 200 202 205 208 210 211 212 211 211 211 212 216 221 227 232 232 226 217 207 200 195
268 261 255 248 244 242 239 237 236 236 234 232 231 231 230 230 229 227 225 222 218 215 211 207 204 200 196 192 190 190 190 190 190 191 193 195 197 198 199 200 199 198 198 202 206 209 210 209 207 205 205 206 207 208 209 211 212 214 215 215 213 208 200 199 200 200 201 203 206 208 209 209 208 208 208 210 215 221 226 227 222 214 206 201 198 195
266 260 253 245 241 239 237 235 234 233 231 228 225 224 225 225 224 223 221 218 214 209 204 200 196 193 190 187 186 187 187 187 188 191 194 195 197 198 199 200 199 198 199 202 205 207 207 205 204 203 203 204 206 207 208 209 210 211 213 213 211 206 200 200 201 201 200 201 203 205 205 206 206 206 207 210 216 221 225 222 213 204 200 200 201 199
262 257 250 243 236 232 231 233 233 231 228 224 220 217 216 215 215 214 213 210 206 202 197 192 188 185 184 183 183 184 185 186 187 189 191 192 193 195 197 198 197 198 199 202 204 204 203 201 200 199 200 202 204 205 206 206 207 207 208 207 205 201 198 199 201 201 199 200 201 202 204 204 205 206 208 211 216 221 222 216 206 199 200 202 204 201
259 254 247 243 237 230 226 228 231 230 225 221 218 215 212 206 202 199 197 197 197 195 191 187 183 180 179 180 181 182 183 185 187 189 189 190 190 192 193 194 194 196 198 200 201 200 199 197 196 196 198 200 202 203 204 204 204 203 202 201 199 196 196 198 199 198 197 197 198 200 203 204 205 206 209 212 217 220 220 213 204 199 200 203 202 197
257 252 245 237 232 229 224 223 225 224 220 214 212 212 211 205 198 190 186 188 189 188 186 184 182 178 176 177 178 179 180 181 183 185 187 188 188 189 190 191 192 193 195 196 197 196 194 193 192 194 196 199 201 202 202 203 202 200 199 197 195 194 195 196 196 195 194 195 196 198 200 202 204 206 209 213 217 219 219 213 207 205 207 204 197 189
253 249 242 233 226 221 217 217 218 215 208 202 201 204 206 203 198 192 185 184 184 182 181 181 180 178 176 175 175 176 176 175 175 176 179 181 182 183 184 185 186 188 189 190 190 190 190 189 190 192 195 198 199 201 201 201 201 200 198 196 195 195 196 196 195 194 193 194 195 197 199 201 203 205 208 213 217 220 219 216 215 216 220 213 198 186
248 242 234 225 220 215 210 208 204 199 196 194 196 198 199 198 196 193 189 185 182 180 179 178 177 175 175 174 173 172 170 170 170 170 171 173 175 176 177 177 178 180 181 182 183 185 186 186 188 191 194 197 198 200 200 200 200 200 198 197 196 197 198 198 197 195 195 195 197 198 200 203 205 207 209 213 217 220 220 220 221 225 230 222 203 189
236 228 217 212 212 212 207 201 194 192 197 201 203 203 200 195 191 187 185 182 181 179 177 174 171 170 170 170 170 170 168 166 166 166 167 169 172 174 175 174 175 177 179 179 180 182 183 184 186 189 193 196 197 198 199 199 200 199 199 198 197 198 200 201 200 199 199 199 200 202 204 206 208 209 211 214 217 220 221 223 226 232 235 226 208 194
220 209 203 207 211 210 207 203 202 204 208 208 207 204 198 191 186 183 179 175 174 173 171 168 165 165 165 166 168 169 168 165 163 162 163 167 172 175 176 175 175 178 180 180 180 182 183 185 186 189 192 194 196 197 197 198 198 199 199 198 198 199 200 202 203 203 203 203 205 207 209 209 209 210 212 215 218 221 223 226 230 235 237 228 212 199
212 203 204 211 215 215 213 210 210 212 213 210 205 198 189 184 183 183 179 173 168 165 162 158 157 160 164 167 168 169 168 166 163 161 162 164 170 175 178 175 174 176 180 181 182 183 184 186 188 190 192 193 194 196 196 196 196 197 198 199 199 200 201 202 204 205 205 206 206 208 209 209 209 209 212 216 220 223 225 228 232 237 237 230 215 202
211 208 211 216 220 221 219 215 214 214 213 207 201 196 190 187 186 184 179 172 166 164 165 165 164 162 166 168 169 170 170 167 164 163 162 163 167 173 178 177 174 174 179 182 183 184 185 186 188 190 191 192 192 194 194 194 195 196 197 198 199 200 201 202 203 204 205 206 206 207 208 208 208 209 212 217 221 224 227 230 233 236 236 229 216 202
213 212 215 219 223 223 219 215 213 213 210 203 199 196 194 191 188 184 179 173 169 169 172 174 175 174 170 173 172 171 172 168 164 162 161 162 167 172 177 179 177 177 179 182 185 186 186 187 187 188 189 190 191 191 193 193 194 195 196 197 199 200 201 202 203 203 204 205 206 206 207 207 207 209 212 217 221 225 227 230 233 235 234 227 214 200
217 216 217 221 225 224 219 213 211 209 205 200 195 193 192 190 187 184 181 178 176 176 176 178 178 177 175 177 175 172 172 169 165 160 158 161 166 171 176 178 178 178 179 182 185 187 187 187 188 188 188 188 189 190 191 192 193 194 195 197 198 199 201 202 203 203 204 205 205 206 207 207 207 209 213 217 221 225 227 230 231 232 230 223 210 197
220 219 220 222 223 222 217 214 211 208 204 200 195 190 188 188 186 185 184 183 183 182 180 179 179 178 175 174 172 172 171 169 164 160 159 162 166 170 175 177 178 177 179 182 185 187 187 187 187 187 187 187 188 189 190 191 192 193 195 196 198 199 201 202 203 203 204 205 205 206 206 207 208 209 212 216 221 225 227 227 227 226 224 217 205 194
225 225 225 225 222 218 218 218 216 212 206 200 193 189 188 187 186 185 185 184 184 184 183 182 181 178 174 170 170 172 172 170 164 159 160 163 166 170 174 177 178 178 179 182 185 186 186 186 186 185 186 186 187 188 189 191 192 193 195 196 198 199 200 201 202 203 204 205 205 205 206 206 207 209 211 215 220 223 224 222 220 219 216 209 198 191
230 232 232 229 224 221 221 221 218 214 208 200 193 189 189 187 186 186 185 183 183 183 184 185 183 179 175 173 173 174 175 175 170 162 159 160 166 172 174 178 179 179 179 182 184 186 185 185 185 185 185 185 186 187 188 190 192 193 194 196 197 199 200 201 202 203 204 205 205 205 205 205 206 208 210 213 217 219 216 211 209 208 205 199 193 188
235 237 237 234 230 226 225 223 220 215 209 202 197 194 192 190 188 186 185 183 182 182 181 178 176 174 174 174 174 174 175 176 174 169 160 159 168 175 175 178 179 179 180 183 184 184 184 184 184 184 184 185 185 186 187 189 191 193 194 195 196 198 199 201 202 203 204 204 204 204 204 204 204 206 208 211 213 211 204 198 196 196 192 186 183 182
239 239 239 237 234 231 227 223 219 215 209 203 199 196 194 192 190 188 186 184 181 177 173 167 161 159 165 170 172 172 173 175 174 171 164 163 170 175 177 178 177 177 181 184 184 183 183 183 183 183 182 183 185 186 187 188 190 192 193 194 196 197 199 200 201 202 202 202 201 201 201 202 202 202 204 206 205 199 190 187 186 184 177 173 173 175
242 241 240 239 238 234 229 224 220 215 208 200 194 190 188 188 187 185 182 181 176 170 162 152 143 143 152 162 168 172 174 175 175 173 167 160 163 171 177 178 176 175 179 185 185 183 182 182 182 182 181 181 183 186 187 188 190 192 193 194 195 196 198 199 199 199 199 198 197 196 197 198 198 198 198 198 193 186 181 180 178 174 169 167 168 171
247 245 242 241 239 237 233 228 223 217 209 199 191 186 184 183 180 177 175 174 169 162 152 144 140 144 153 160 168 174 176 176 176 176 172 160 156 165 175 178 177 175 177 183 184 183 182 182 182 182 181 179 181 185 187 188 189 191 193 194 195 196 197 197 197 195 193 192 191 191 192 192 192 192 192 189 184 179 177 177 174 170 167 165 165 166
249 247 244 241 239 238 234 229 224 218 210 200 192 187 183 180 174 168 166 168 167 163 156 154 150 148 154 161 170 176 178 177 177 178 176 166 157 161 173 177 176 174 173 178 182 184 184 183 183 182 181 179 180 183 185 187 189 191 192 194 194 195 196 195 193 191 188 187 187 187 187 187 187 187 186 183 179 176 176 175 173 170 169 165 163 162
246 245 242 240 239 237 234 229 223 216 209 201 194 189 184 179 172 166 167 171 171 167 165 163 159 155 160 168 173 176 178 179 179 181 181 171 160 161 172 175 175 172 168 170 177 183 185 185 185 184 183 182 181 181 181 184 187 190 192 193 194 194 195 193 191 187 184 184 184 185 184 184 184 183 182 180 177 176 175 174 173 173 173 169 164 161
239 240 240 239 237 235 231 226 220 214 208 201 195 191 188 184 179 176 176 175 171 168 169 169 168 165 163 164 167 172 178 181 183 184 184 171 160 163 171 173 173 172 166 162 167 178 187 190 189 187 186 185 183 181 180 181 183 187 190 192 193 194 194 193 189 185 183 183 183 183 183 182 181 181 180 179 177 176 174 174 176 178 177 173 168 163
230 232 232 233 232 230 225 219 214 210 206 201 196 193 191 190 187 185 182 178 172 169 170 170 168 162 154 149 151 165 182 188 187 186 184 172 162 163 169 170 173 174 169 160 154 167 190 196 195 192 189 188 186 184 183 182 182 182 185 188 191 194 195 193 189 185 183 183 184 184 183 182 182 181 180 180 178 177 176 178 180 182 181 178 172 168
223 222 221 222 222 220 216 211 207 204 201 199 196 194 193 192 191 189 186 181 177 175 173 171 167 163 157 152 147 159 195 195 191 187 186 176 168 167 169 170 174 178 178 171 163 155 186 199 200 198 193 190 188 187 186 185 184 183 183 184 188 193 196 193 189 185 184 185 186 185 184 184 183 182 182 181 180 179 180 183 184 184 184 182 177 173
219 216 214 213 211 208 205 203 200 198 196 195 194 193 193 192 192 191 189 187 184 182 179 176 174 172 172 175 178 182 190 194 191 189 187 179 173 172 174 173 176 180 182 181 179 172 162 182 196 199 196 193 191 189 189 188 187 185 184 185 187 191 194 193 189 186 186 187 187 187 186 186 185 185 184 183 182 182 185 187 187 187 187 186 183 178
215 212 209 206 203 200 198 196 195 193 192 192 192 193 193 193 194 194 194 193 191 188 184 181 179 178 181 184 187 188 190 192 191 190 187 182 176 173 175 175 176 179 182 184 184 180 170 166 178 189 194 195 193 191 190 190 189 187 186 187 188 190 192 191 189 187 187 188 188 188 188 188 188 187 186 184 183 185 188 191 191 190 190 190 188 184
209 205 202 199 196 194 193 192 191 191 191 192 193 193 193 193 195 196 197 196 195 193 190 187 184 182 182 185 189 190 191 193 193 191 188 185 180 175 175 175 176 178 180 183 185 184 175 167 166 173 186 194 195 193 191 191 191 190 188 188 189 190 191 190 189 188 187 188 188 188 188 189 190 190 189 187 186 186 190 194 194 194 195 195 193 190
201 197 195 192 191 190 189 189 189 190 192 193 194 194 194 194 195 197 199 199 198 197 196 196 194 192 188 186 187 189 191 195 194 191 189 188 185 180 177 177 178 178 178 181 183 179 161 162 165 167 173 184 193 196 193 192 192 191 190 190 190 191 192 192 190 189 188 188 188 188 188 189 190 190 189 188 187 188 191 195 196 196 197 199 199 197
195 192 191 189 188 187 187 187 188 190 192 194 195 195 195 195 197 198 200 201 201 200 200 201 202 203 201 198 195 195 197 197 194 192 191 192 190 184 179 180 182 181 179 181 184 181 167 159 163 168 169 173 185 195 196 195 193 192 191 191 191 191 193 193 193 191 190 189 189 189 189 189 190 191 190 189 187 188 192 196 197 196 197 200 202 202
192 191 190 189 188 187 186 187 188 190 192 194 195 196 196 196 197 199 201 202 203 202 202 203 205 206 207 207 207 207 207 202 196 192 193 194 194 189 183 184 185 185 182 182 183 182 176 164 162 167 171 176 182 190 194 195 194 193 193 193 192 192 192 194 194 193 191 191 191 190 190 190 191 192 191 189 188 188 192 196 198 197 197 199 201 204
194 193 192 191 190 189 188 188 189 190 192 193 194 195 196 197 198 199 201 202 203 203 203 203 204 205 207 208 211 214 214 207 199 194 194 196 196 193 187 186 187 188 188 186 184 180 176 170 168 172 180 186 187 186 188 190 192 194 195 193 192 192 193 194 195 194 194 193 192 191 191 192 192 192 191 190 188 189 191 194 197 197 195 197 199 202
196 196 195 194 193 191 190 190 190 191 192 193 194 194 195 196 198 199 200 201 201 202 202 203 203 204 204 206 210 213 215 210 203 198 197 198 198 196 192 188 187 188 190 189 186 182 180 180 180 180 180 182 182 183 186 188 190 192 193 193 193 193 194 194 195 195 195 194 193 192 192 193 193 193 191 190 189 189 191 193 195 195 194 194 196 198
200 200 199 197 197 196 195 194 193 192 192 192 193 193 194 194 195 196 197 198 199 199 201 202 202 202 202 203 206 210 212 210 206 202 200 199 199 198 195 192 189 187 187 187 186 185 185 186 187 187 183 180 177 177 180 186 189 190 189 189 193 196 194 194 195 195 196 195 193 193 193 193 194 194 192 191 191 191 192 193 194 195 196 194 193 193
203 202 201 201 200 199 198 196 195 193 192 191 190 190 190 191 191 191 193 194 195 196 198 198 198 198 198 198 200 202 205 205 203 202 201 200 199 199 198 196 193 189 186 185 186 188 188 188 188 187 184 180 177 176 179 185 188 188 187 187 192 194 193 193 194 195 196 196 195 194 193 194 195 195 194 193 193 193 194 195 196 197 199 198 196 193
204 204 203 202 200 199 198 196 194 192 191 189 188 187 188 189 189 188 187 187 188 190 192 192 191 189 188 190 193 195 196 196 197 199 200 200 200 199 199 198 196 192 188 186 186 188 190 189 187 184 182 178 175 174 178 184 187 188 189 190 190 191 191 193 195 196 195 196 196 195 194 195 195 196 195 194 194 194 195 197 199 200 202 202 202 200
205 205 204 201 199 197 195 193 191 189 188 187 186 187 188 189 189 188 185 183 183 185 186 187 186 182 178 178 182 187 190 191 192 194 197 199 200 200 200 200 199 196 192 187 185 187 190 190 188 186 183 180 176 174 175 180 184 187 190 191 187 183 183 191 194 195 195 196 196 196 195 195 196 197 196 195 195 194 196 198 201 204 205 206 206 205
205 203 201 198 196 194 192 189 188 186 185 184 184 186 187 189 189 187 185 182 182 181 181 181 181 178 173 171 173 177 182 186 188 190 193 197 199 200 202 202 202 201 197 190 186 185 186 187 188 188 185 182 180 177 176 178 181 185 189 191 189 186 186 189 191 192 194 196 197 196 196 195 196 197 197 197 196 196 197 199 202 205 208 210 211 210
202 198 195 193 190 187 185 185 185 185 185 185 185 185 185 186 187 186 183 181 180 178 177 176 174 169 165 166 169 172 175 179 183 187 190 193 197 200 202 203 203 202 200 197 193 189 185 183 184 184 183 183 182 181 179 179 181 184 187 190 191 193 193 192 190 190 191 194 196 196 196 195 195 196 197 197 197 198 199 200 202 204 207 209 212 214
196 192 189 188 186 184 184 184 184 183 183 183 184 184 184 184 184 184 183 181 178 176 176 176 173 169 166 166 167 167 169 173 178 182 185 189 192 197 200 202 203 202 200 199 198 196 192 189 184 180 177 178 181 183 184 182 181 182 185 188 190 192 193 193 192 191 191 192 194 195 196 194 194 195 196 197 198 199 200 201 203 205 206 208 211 214
190 187 186 185 184 184 184 184 182 181 181 181 182 183 183 182 181 181 182 181 179 176 175 175 174 173 171 169 168 167 166 168 172 177 181 184 188 191 194 197 199 200 198 197 197 197 198 196 192 185 178 175 176 181 185 185 184 182 183 185 187 188 189 191 193 193 193 192 193 194 194 193 193 195 197 198 198 199 201 203 204 206 207 209 211 214
189 187 186 184 183 182 182 181 181 180 179 180 181 182 182 182 180 180 179 179 178 175 173 174 175 175 172 171 171 171 170 169 169 172 175 178 182 185 188 190 192 193 193 193 193 193 195 196 196 193 188 184 180 179 182 184 185 185 184 184 185 186 189 191 193 193 193 193 193 194 193 192 192 194 195 196 197 199 202 204 205 206 208 209 211 214
191 189 187 185 183 182 181 181 181 180 179 179 179 180 181 182 181 180 179 178 177 176 174 175 175 173 169 170 173 174 172 170 170 170 172 174 176 178 180 183 184 184 184 185 186 187 188 191 194 195 196 194 189 184 182 183 185 186 186 185 186 187 189 191 192 192 192 193 194 194 194 194 194 194 194 193 194 198 202 204 205 206 207 209 210 213
192 191 189 186 184 184 183 182 182 182 181 179 178 178 179 180 181 181 181 179 178 178 178 178 176 172 169 169 171 172 171 170 169 169 171 173 173 173 174 176 176 174 172 173 174 176 179 183 189 194 197 199 197 192 187 184 184 184 184 186 187 188 188 189 190 191 192 193 194 194 194 195 195 195 195 194 194 197 200 204 206 207 207 208 209 211
192 191 189 188 187 186 185 184 184 184 183 181 179 177 177 178 179 180 180 179 179 180 181 180 178 174 171 170 171 172 172 171 169 169 172 173 173 172 171 172 171 167 162 159 159 162 164 169 182 194 200 200 201 200 195 187 182 181 181 184 187 188 188 188 189 191 191 193 193 193 193 193 195 195 196 195 195 195 199 203 206 208 207 208 208 210